Lid_Strength_Index
15 15 15 15 16 16 16 17 17 17 17 17 16 16 16 17 16 17 17 17 17 16
15 15 15 16 16 17 17 17 17 17 17 17 17 17 17 17 18 17 17 17 17 17
16 16 16 16 17 17 17 17 17 17 17 17 17 17 17 18 18 18 18 17 17 17
16 16 16 17 17 17 18 18 18 17 18 18 18 18 18 18 18 18 18 18 17 17
17 17 17 17 18 18 18 18 18 18 18 18 18 18 18 18 18 18 17 17 17 17
17 17 18 18 18 18 18 18 18 18 18 18 18 18 18 18 18 18 17 17 16 16
18 17 18 18 18 18 18 19 19 18 18 18 18 18 18 18 17 17 16 15 15 15
17 17 17 17 18 18 18 18 18 19 19 19 19 18 18 17 16 16 15 15 14 14
17 17 17 17 17 18 18 18 18 19 19 19 18 15 14 15 15 14 14 14 14 14
16 17 16 16 17 18 18 19 19 19 19 19 18 14 12 12 14 14 14 14 14 13
16 16 16 17 17 18 18 18 19 19 18 18 17 12 11 11 13 14 14 14 13 13
15 16 16 17 17 17 18 18 18 18 19 18 17 12 10 11 13 13 14 13 13 12
14 15 16 15 16 17 17 17 17 17 17 17 17 12 10 10 13 17 14 14 12 10
15 15 15 15 17 19 17 17 17 17 17 18 17 16 10 10 12 14 15 14 13 11